Home   Weather   Formosa   Past weeks

Flag for Argentina Past Weather in Formosa, Formosa, Argentina — Yesterday and Last 2 Weeks

Now
54 °F

Clear.


Feels Like: 53 °F
Forecast: 56 / 90 °F
Wind: 3 mph from Southeast

Location: Formosa Aerodrome

Current Time: Sep 27, 2016 at 7:30:20 AM

Latest Report: Sep 27, 2016 at 7:00 AM


Visibility: 5 mi

Pressure: 29.98 "Hg

Humidity: 88%

Dew Point: 50 °F

Location of FormosaLocation

Past Weather in Formosa — Graph

°F

Formosa Temperature Yesterday

Maximum temperature yesterday: 86 °F (at 4:00 PM)
Minimum temperature yesterday: 48 °F (at 5:00 AM)
Average temperature yesterday: 67 °F

High & Low Weather Summary for the Past Weeks

 TemperatureHumidityPressure
High100 °F (Sep 12, 3:00 PM)100% (Sep 20, 4:00 AM)30.24 "Hg (Sep 20, 4:00 AM)
Low45 °F (Sep 25, 6:00 AM)24% (Sep 12, 4:00 PM)29.36 "Hg (Sep 12, 5:00 PM)
Average69 °F61%30.00 "Hg
* Reported Sep 12 6:00 AM — Sep 27 6:00 AM, Formosa, Weather by CustomWeather, © 2016

Note: Actual official high and low records may vary slightly from our data, if they occured in-between our weather recording intervals... More about our weather records

Advertising

Formosa Weather History for the Previous 24 Hours

Scroll right to see more
 ConditionsComfort  
Time TempWeatherWind HumidityBarometerVisibility
6:00 AM
Tue, Sep 27
54 °FClear.6 mph88%29.98 "Hg10 mi
5:00 AM54 °FClear.No wind88%29.95 "Hg10 mi
4:00 AM57 °FClear.No wind82%29.95 "Hg10 mi
3:00 AM61 °FClear.6 mph72%29.95 "Hg10 mi
2:00 AM61 °FClear.6 mph68%29.95 "Hg10 mi
1:00 AM61 °FClear.5 mph68%29.98 "Hg10 mi
12:00 AM63 °FClear.No wind68%29.98 "Hg10 mi
11:00 PM
Mon, Sep 26
64 °FClear.5 mph64%29.98 "Hg10 mi
10:00 PM66 °FClear.6 mph64%29.98 "Hg5 mi
9:00 PM68 °FClear.6 mph53%29.98 "Hg5 mi
8:00 PM72 °FClear.6 mph47%29.95 "Hg5 mi
7:00 PM75 °FClear.7 mph44%29.95 "Hg4 mi
6:00 PM82 °FSunny.2 mph30%29.92 "Hg10 mi
5:00 PM84 °FSunny.3 mph27%29.92 "Hg10 mi
4:00 PM86 °FSunny.1 mph25%29.95 "Hg10 mi
3:00 PM84 °FSunny.1 mph25%29.98 "Hg10 mi
2:00 PM82 °FSunny.1 mph26%30.01 "Hg10 mi
1:00 PM81 °FSunny.6 mph30%30.04 "Hg10 mi
12:00 PM79 °FPleasantly warm.N/A34%30.07 "HgN/A
11:00 AM75 °FSunny.10 mph41%30.07 "Hg10 mi
10:00 AM72 °FSunny.7 mph50%30.07 "Hg10 mi
9:00 AM64 °FSunny.8 mph60%30.07 "Hg10 mi
8:00 AM59 °FSunny.8 mph72%30.07 "Hg10 mi
7:00 AM48 °FSunny.5 mph94%30.04 "Hg10 mi
Weather by CustomWeather, © 2016

See weather overviewHow to use our weather pages